Theta_e
357 358 357 357 356 355 355 356 356 356 355 355 354 353 353 354 354 354 357 360 362 363 363 362 362 362 361 360 358 357 356 354 354 355 355 354 351 350 351 352 353 355 356 355 355 357 357 358 358 358 359 359 359 363 364 363 363 363 362 362 362 362 359
354 357 357 357 356 355 355 356 356 356 355 356 355 353 352 354 355 355 359 362 363 364 364 363 363 362 362 360 359 358 357 356 355 355 356 354 353 352 351 351 351 353 355 354 353 356 356 357 358 358 360 359 357 360 362 362 362 362 361 361 363 363 362
351 354 355 356 356 355 356 356 355 354 355 355 356 354 354 354 354 356 360 362 364 365 364 364 364 362 362 361 360 360 359 357 356 356 355 353 353 352 350 351 351 351 352 353 353 355 356 357 357 357 358 358 356 358 359 360 361 361 360 363 363 361 362
351 352 354 355 356 356 357 358 357 356 354 354 354 354 355 355 356 358 360 361 362 365 365 364 364 362 362 362 360 360 360 358 356 356 354 351 351 351 350 351 352 350 350 351 352 352 354 355 357 357 358 357 356 357 357 357 358 358 360 363 362 359 361
349 350 352 353 355 356 356 358 359 359 357 356 356 355 353 354 356 358 359 360 361 363 364 364 363 362 361 362 360 359 360 359 356 355 354 351 350 351 350 349 350 349 349 349 350 351 352 354 355 357 357 357 356 355 356 357 357 357 358 360 360 358 358
347 349 350 351 353 354 355 357 358 357 356 355 355 356 355 353 355 356 358 360 359 360 362 362 361 361 361 361 358 358 360 360 358 356 354 352 350 350 350 350 349 349 348 348 348 349 352 353 354 355 356 356 354 353 354 355 355 355 356 358 359 358 356
345 347 348 349 350 350 353 357 357 355 355 354 353 354 355 355 356 357 356 358 358 358 361 361 360 360 362 361 358 358 360 360 360 358 355 353 352 351 350 350 350 348 347 347 347 348 350 353 355 354 354 354 353 352 351 353 353 353 354 356 358 358 357
344 345 345 346 347 346 349 355 357 356 356 355 354 355 356 357 357 357 356 356 355 357 359 359 358 358 361 361 359 358 359 358 359 358 356 353 351 351 351 351 351 349 347 346 347 348 348 351 353 353 353 354 353 352 351 352 354 354 352 354 356 358 357
341 342 343 344 343 343 348 351 353 355 356 356 355 355 355 357 358 356 356 356 355 356 356 355 356 357 359 361 360 359 358 357 358 358 356 352 350 350 349 349 350 350 349 347 346 348 348 349 350 350 353 354 353 353 352 352 354 355 353 353 354 356 357
339 340 341 341 341 342 346 347 348 351 353 356 357 355 354 356 358 356 354 354 353 353 353 354 355 357 359 360 360 359 359 357 356 357 355 352 351 349 347 346 347 349 351 348 344 345 347 348 348 348 351 354 354 353 354 354 355 356 354 353 354 356 357
337 338 338 339 339 340 342 344 345 347 349 352 355 356 356 355 356 355 352 351 352 352 352 354 355 356 358 359 360 359 359 358 356 355 355 353 351 349 347 344 344 346 348 348 345 343 344 347 348 348 350 354 354 354 354 355 356 356 355 353 354 355 356
336 337 337 337 337 337 338 340 343 345 346 347 349 352 354 354 354 354 352 351 352 353 353 354 355 355 355 357 359 359 359 358 356 355 354 354 351 349 348 345 343 343 346 348 346 343 343 345 347 348 349 352 354 354 354 355 356 356 356 354 352 353 354
334 334 334 335 334 334 336 338 340 343 343 344 345 347 349 352 353 354 354 353 353 353 354 354 354 355 355 356 358 358 358 358 357 355 353 353 352 349 348 347 344 343 343 345 346 345 343 343 345 347 348 351 353 353 353 354 355 355 356 356 353 352 353
334 332 331 332 332 332 333 334 337 340 340 341 342 343 345 347 350 351 353 353 352 352 353 352 352 354 355 356 357 358 359 357 356 356 354 353 354 351 348 347 346 345 344 344 345 345 343 341 342 346 348 349 351 352 351 352 355 355 356 357 356 353 352
333 331 331 331 330 331 331 331 334 337 337 338 338 340 341 343 345 348 350 352 353 352 353 352 352 353 354 355 356 357 359 358 357 356 356 355 355 353 351 349 348 347 346 345 345 346 344 342 341 343 345 347 349 351 349 348 350 354 355 357 357 355 351
331 331 331 330 330 331 330 330 333 334 335 336 336 336 338 340 342 344 347 349 351 353 354 353 352 354 354 354 355 356 358 359 358 358 357 358 357 357 355 352 350 349 348 348 347 346 346 344 342 342 343 345 348 350 349 346 345 348 352 354 356 356 352
331 330 330 331 331 331 330 330 332 333 334 335 335 335 337 338 340 342 345 346 348 351 353 353 354 354 353 354 355 356 358 360 360 359 359 359 359 359 360 358 354 352 351 351 349 349 349 348 347 344 342 344 346 348 347 345 343 343 347 350 352 354 353
330 330 330 330 332 332 330 330 331 332 332 332 334 335 335 336 338 340 342 344 347 350 351 353 354 353 352 353 354 355 357 359 360 360 360 360 360 361 362 361 358 355 354 354 353 352 352 352 351 349 346 345 344 345 345 344 343 342 344 346 348 348 348
328 328 329 330 330 330 330 331 331 332 332 331 332 334 334 335 337 338 339 341 344 348 350 352 354 354 355 355 353 354 356 358 360 360 358 359 361 363 363 363 362 359 356 355 355 355 355 355 355 354 352 350 347 346 345 345 344 344 344 344 345 344 343
326 326 327 328 328 328 329 330 331 331 332 331 331 332 333 334 336 338 338 340 343 346 347 349 351 352 354 355 354 354 354 355 358 361 360 359 361 363 363 363 364 361 357 356 356 357 357 357 357 356 356 355 353 351 349 347 346 345 345 345 346 345 345
325 325 325 326 327 327 328 328 329 330 330 330 330 331 332 333 335 337 338 339 341 343 345 346 346 346 349 352 354 354 354 354 355 358 361 360 358 357 358 361 363 362 358 356 357 358 358 359 358 358 358 358 357 356 354 351 349 348 348 347 347 347 347
324 323 324 324 325 326 326 325 326 327 328 329 329 329 330 332 334 335 337 338 339 340 342 343 343 343 344 346 350 351 352 354 355 355 357 357 355 353 353 357 360 361 359 357 356 357 358 359 359 358 358 359 359 358 357 355 352 351 351 350 350 350 349
322 323 324 323 323 325 324 324 325 325 325 327 327 327 329 331 332 334 336 337 338 338 340 340 341 341 341 342 344 346 348 352 354 355 356 356 356 354 353 354 355 357 358 358 358 357 356 358 358 358 358 359 359 359 359 357 355 354 353 352 351 351 350
322 322 322 321 322 323 322 323 324 324 323 325 325 325 326 329 332 334 335 336 337 338 338 339 339 339 340 340 340 342 344 347 351 354 356 356 355 354 354 353 354 356 357 356 358 359 357 357 357 358 358 358 358 359 359 358 358 356 355 353 352 352 351
321 321 320 320 321 321 320 322 323 323 323 323 323 323 324 325 329 332 334 334 336 337 337 337 337 338 339 339 338 339 342 345 348 351 353 354 353 352 354 353 354 356 355 353 356 360 359 358 358 357 358 358 358 358 358 358 358 358 357 355 354 353 352
320 320 320 319 320 320 319 320 322 321 321 322 323 323 322 323 325 329 331 333 335 335 335 335 336 337 338 339 339 339 341 344 347 349 352 354 353 353 353 353 353 353 353 353 354 355 357 359 359 358 357 357 358 358 357 358 358 358 358 357 356 355 353
319 319 319 319 319 319 319 319 320 320 320 321 321 322 322 322 324 326 329 331 333 334 334 334 336 337 337 338 339 340 340 342 345 347 349 352 353 353 353 352 353 353 353 354 352 350 352 357 360 360 359 359 359 359 358 357 357 357 358 357 356 356 354
318 318 318 318 318 318 318 319 319 319 319 320 320 320 322 323 324 326 327 328 330 331 332 333 335 336 336 337 339 340 341 342 343 343 344 346 349 350 349 350 351 353 354 355 355 353 353 353 356 359 361 360 359 359 359 359 358 357 357 357 357 357 355
318 318 318 317 317 317 318 318 319 319 319 319 319 320 322 323 325 326 325 326 328 330 330 332 333 335 336 336 338 339 340 341 342 342 343 344 346 346 347 349 350 352 353 355 356 357 356 355 355 358 360 360 359 358 357 358 359 358 358 357 357 357 356
318 317 317 317 316 317 317 317 318 318 318 319 319 320 322 323 325 326 326 326 327 328 329 331 332 333 334 335 337 338 338 339 341 341 342 343 345 346 347 349 350 351 352 353 355 355 355 356 358 358 359 359 359 358 357 358 359 360 359 357 357 356 355
317 317 317 316 316 316 317 317 317 317 317 319 320 320 322 323 323 325 326 326 326 326 327 329 331 332 333 334 336 337 337 338 339 340 342 343 345 347 348 349 351 352 351 352 354 353 353 355 358 359 359 360 360 359 358 358 359 359 359 358 357 356 355
317 318 318 317 317 317 317 317 316 317 318 319 320 321 321 322 322 323 324 325 325 324 325 326 330 331 331 332 334 335 335 336 337 339 342 342 343 345 347 348 350 351 351 351 353 354 354 354 356 357 358 359 359 359 359 359 359 360 360 359 359 359 357
317 317 318 318 318 317 317 317 317 318 319 320 321 321 321 322 322 322 322 323 324 323 323 325 328 329 330 330 331 332 333 335 336 338 340 341 342 344 346 347 348 350 352 352 352 352 353 353 355 356 355 357 359 359 359 360 359 359 360 359 359 360 361
316 316 316 317 317 317 317 318 318 318 319 320 320 321 321 322 322 322 322 322 323 323 324 325 327 328 329 329 329 330 332 334 336 337 338 340 342 343 344 346 346 347 349 349 350 352 352 351 353 354 355 357 358 357 357 358 356 355 356 356 356 357 359
314 314 315 315 316 316 317 317 317 318 319 319 319 320 320 321 322 322 322 322 323 324 325 326 328 329 329 329 330 331 331 333 335 337 337 337 339 340 342 344 344 345 345 345 346 348 350 350 352 353 354 355 356 355 355 356 354 354 355 355 355 356 355
313 313 314 314 314 315 315 316 317 317 318 318 319 319 319 320 320 322 322 323 324 324 324 326 328 329 328 328 328 329 330 332 333 333 334 335 336 337 339 341 341 342 343 342 343 344 345 345 345 346 348 349 350 351 352 353 352 352 353 353 355 355 354
312 312 312 313 313 314 314 315 316 316 317 318 318 318 319 319 320 320 321 322 323 324 325 326 327 328 328 327 327 328 330 331 331 331 333 335 336 337 338 339 339 340 340 340 340 341 341 342 341 342 343 344 346 347 347 347 348 348 348 348 350 351 352
311 311 311 312 312 313 314 314 315 315 316 317 317 317 318 318 318 319 320 321 322 323 324 326 327 328 328 327 327 328 329 330 331 332 332 333 334 336 337 338 338 339 339 339 338 338 338 339 340 341 341 342 343 343 344 344 344 345 345 345 346 346 348
Wind_Speed
11 11 12 12 12 14 15 18 21 22 21 22 23 27 27 25 24 25 25 26 26 26 26 25 24 23 23 22 21 21 20 19 18 17 16 15 14 13 13 12 12 11 11 10 10 9 9 8 9 9 9 9 9 8 7 7 7 6 6 6 5 4 5
7 9 10 12 13 15 16 17 20 20 20 20 23 27 27 25 25 25 24 26 27 27 26 25 24 24 23 23 21 21 21 20 19 17 16 16 15 14 14 13 13 12 11 10 9 9 10 9 9 9 9 9 9 9 8 8 8 7 7 8 7 5 5
7 7 6 7 9 12 14 16 19 19 19 21 23 26 26 25 26 24 24 25 25 25 26 26 25 24 23 23 22 22 22 21 20 19 18 17 16 16 15 14 13 13 13 12 10 10 10 10 10 10 9 9 9 9 9 9 9 9 8 8 7 6 6
7 6 5 4 7 9 9 13 17 18 19 19 20 22 23 24 23 21 22 24 25 25 25 25 25 24 24 23 23 22 23 22 21 20 19 18 17 16 16 15 14 14 14 13 12 11 10 11 11 11 10 10 9 9 10 9 9 9 9 8 7 7 8
8 7 6 3 3 7 8 8 9 11 12 12 14 18 22 23 21 19 21 23 24 24 24 24 24 24 24 24 23 22 23 23 22 21 20 19 18 17 16 16 16 15 15 14 14 13 12 11 12 12 11 11 10 10 10 10 9 9 9 9 8 8 8
10 9 8 8 6 2 8 12 12 11 11 13 16 15 18 24 24 22 23 23 23 24 25 27 27 25 25 25 24 22 22 23 22 21 20 19 19 18 18 17 17 16 16 15 15 14 14 13 13 13 13 12 11 11 11 11 11 10 10 10 9 9 8
11 10 9 9 10 9 4 9 15 16 14 16 21 21 18 19 21 22 23 22 24 26 26 28 28 27 26 25 24 23 23 23 22 22 20 20 20 20 19 18 18 17 16 16 16 16 15 15 14 14 13 13 12 12 12 11 11 11 11 11 10 10 9
11 10 10 9 10 11 11 12 12 12 14 16 21 24 19 14 15 18 19 20 22 24 26 30 30 29 28 26 26 25 24 23 23 22 22 21 21 21 20 19 19 18 17 17 17 17 16 16 16 15 14 14 14 13 12 12 12 12 12 11 11 11 10
11 10 11 11 12 12 13 17 18 10 6 13 19 16 12 11 11 12 13 16 19 21 25 32 32 30 29 26 26 26 25 24 23 23 23 22 21 22 21 21 20 19 19 19 18 17 17 17 16 16 16 15 15 15 14 14 14 13 13 12 12 12 12
11 12 12 13 13 13 14 18 19 17 14 7 9 7 5 6 8 11 14 17 19 22 27 31 28 26 27 27 25 26 25 24 24 23 23 23 22 22 23 22 21 21 21 20 19 18 18 18 17 17 17 17 16 16 16 15 15 15 14 14 14 13 13
11 12 13 14 14 14 16 17 17 17 18 15 11 7 5 6 5 11 18 20 20 25 31 29 22 20 22 24 24 25 25 25 24 24 24 24 23 23 23 22 22 22 21 21 20 20 19 19 18 18 18 18 18 18 17 16 16 16 16 16 15 15 14
11 12 13 14 15 15 14 15 16 18 18 18 16 11 3 3 6 10 15 17 17 22 28 22 14 19 20 22 23 23 24 25 24 25 25 24 24 23 23 23 22 23 22 22 21 21 20 20 20 19 19 19 19 18 18 18 17 17 17 17 16 16 15
11 11 12 13 14 15 15 14 16 18 18 17 17 16 14 8 1 5 9 10 11 16 20 18 11 13 15 17 20 21 23 24 24 24 25 25 24 24 23 23 23 23 23 22 22 22 21 21 21 21 20 20 20 20 19 19 19 18 18 18 18 17 16
12 13 13 14 14 15 16 15 15 17 19 19 18 17 17 14 12 9 3 3 3 9 15 15 14 12 9 11 15 17 20 23 24 24 24 24 25 24 23 23 23 23 22 22 22 22 22 22 21 21 21 21 21 21 20 20 20 20 19 19 18 18 18
12 13 14 15 15 15 15 15 15 17 18 19 19 18 17 15 16 17 12 9 7 3 9 11 14 15 12 11 13 14 17 20 21 23 23 24 24 25 25 24 23 23 22 22 22 21 21 22 22 22 22 21 21 21 21 21 21 21 20 20 19 19 19
12 13 14 14 14 14 14 14 15 17 19 19 19 19 18 16 17 17 16 14 9 4 5 6 12 15 13 13 13 14 16 18 19 21 22 24 24 24 25 24 24 23 23 23 22 21 21 21 22 22 22 22 22 21 21 21 21 22 23 22 20 19 19
12 12 13 13 13 13 12 13 15 17 18 19 20 20 18 17 17 16 16 18 15 13 13 10 10 12 13 14 15 16 16 17 18 19 20 23 24 24 24 24 24 24 24 24 24 23 22 22 22 22 22 22 22 22 22 21 21 23 25 26 24 22 19
11 12 12 13 12 13 12 12 14 16 17 18 19 20 19 18 18 17 18 18 17 17 18 15 11 10 12 14 15 16 17 16 18 19 19 21 23 24 24 23 23 23 24 24 24 24 24 23 23 22 22 22 22 23 23 22 22 23 25 27 29 27 23
11 11 12 12 12 12 13 13 14 15 15 16 17 18 18 17 18 17 17 18 17 16 17 16 12 10 11 12 13 15 17 17 17 19 21 22 22 22 23 23 22 23 24 24 24 23 24 24 23 23 23 23 23 23 23 23 23 24 26 27 29 30 28
10 11 11 11 11 12 13 14 14 15 14 14 15 16 16 16 17 17 16 17 17 16 16 17 15 14 13 12 10 12 16 19 18 18 21 22 20 19 21 22 22 23 24 24 24 23 24 24 24 23 23 23 23 23 24 24 24 25 27 29 29 30 30
10 10 10 10 10 11 13 13 14 15 15 14 15 16 15 16 17 17 16 16 16 15 15 16 16 17 16 14 11 10 12 15 17 16 17 18 17 17 18 20 22 22 22 22 23 24 24 23 23 23 23 23 23 23 24 25 25 25 26 28 29 30 31
9 9 9 10 10 11 13 13 13 14 14 14 15 16 15 16 17 17 16 15 15 14 14 14 15 17 18 17 13 11 11 12 13 13 12 11 13 16 19 20 19 19 20 21 22 23 23 22 23 23 23 24 23 23 23 24 25 27 28 27 28 28 29
8 9 9 10 10 10 12 12 12 13 13 12 14 15 15 15 15 16 15 15 14 13 13 14 15 16 18 18 16 14 15 15 13 10 8 8 11 15 19 20 20 20 19 19 19 20 21 21 21 22 22 23 24 23 23 23 24 26 29 29 29 29 30
8 9 9 10 10 10 12 13 11 12 13 12 13 14 14 14 14 14 14 14 14 13 13 14 15 16 17 18 19 18 18 18 16 12 8 9 13 17 20 21 21 21 19 18 17 18 19 19 20 20 21 22 23 23 23 23 23 25 28 30 31 32 33
8 9 9 9 10 11 13 12 11 11 12 12 13 14 14 13 13 14 14 14 14 14 14 14 15 16 16 17 18 19 19 19 18 16 13 11 13 16 19 22 22 19 17 19 20 18 17 18 18 19 20 21 22 23 24 23 23 25 27 29 32 33 35
8 9 9 10 11 12 12 11 10 12 13 13 13 14 13 13 13 14 14 14 14 14 15 15 16 15 15 17 18 19 19 19 18 17 15 14 15 17 18 20 21 18 16 20 23 21 18 17 17 18 20 20 20 22 24 24 24 25 26 28 30 33 35
8 9 10 10 11 11 11 10 10 12 13 12 12 13 13 13 13 13 13 13 13 14 14 15 16 15 15 16 17 18 19 19 18 17 16 14 15 16 17 18 20 19 17 19 23 24 22 19 17 17 18 19 19 20 21 22 23 24 26 27 29 31 33
9 10 10 11 11 10 10 11 11 12 13 13 13 13 13 13 13 13 13 13 13 14 14 14 15 15 15 15 15 17 18 18 18 18 18 17 16 15 15 15 17 19 19 20 23 26 27 26 23 19 17 18 19 20 21 21 23 24 25 27 28 29 32
9 10 11 12 11 11 12 12 11 12 13 13 14 13 13 13 13 13 13 13 13 13 14 14 14 14 14 14 14 15 17 19 18 17 16 16 17 17 16 14 14 17 19 20 22 24 26 27 25 22 19 19 20 22 22 22 23 25 26 26 27 27 29
8 9 10 12 12 13 13 13 13 13 13 13 13 13 12 13 14 14 14 13 13 13 13 14 13 13 13 13 13 13 16 18 19 19 18 18 16 14 15 15 13 14 17 18 19 21 23 23 21 20 20 20 21 23 23 21 22 24 26 28 30 30 30
10 10 10 11 12 13 14 14 15 15 14 13 12 13 13 13 13 14 15 14 13 13 14 14 13 13 13 14 13 13 14 15 16 17 18 17 14 12 13 14 13 14 16 16 16 19 22 21 18 17 19 19 20 22 22 21 20 21 22 24 27 29 31
12 12 12 11 11 12 13 15 16 16 15 14 13 13 13 13 13 14 15 15 15 15 15 14 13 13 14 15 14 14 14 14 15 15 15 14 14 12 12 13 13 13 14 14 15 16 18 18 17 17 18 19 19 20 20 20 20 20 19 19 20 23 28
13 14 14 13 13 12 13 14 15 15 16 16 14 14 14 14 14 15 15 16 16 16 16 15 14 14 14 14 15 15 15 14 14 14 15 14 13 13 13 13 13 13 12 12 13 14 15 16 16 16 18 19 18 18 19 19 20 18 14 13 14 16 20
13 15 16 16 16 15 13 12 13 15 16 16 16 15 15 15 15 15 16 17 17 17 17 16 15 15 15 15 15 15 15 15 14 14 14 13 12 12 12 12 12 12 12 11 12 13 15 15 14 14 16 16 15 16 17 17 17 15 11 10 12 14 15
14 16 17 18 18 17 15 14 14 14 16 17 17 16 16 16 16 16 16 17 17 16 17 17 16 15 15 15 15 15 14 14 13 12 12 13 13 13 12 12 12 13 13 13 13 15 16 17 17 16 16 15 14 15 15 13 14 15 13 10 11 12 13
14 16 17 18 19 18 17 17 16 15 16 16 16 17 17 17 17 17 17 17 17 16 17 17 17 16 16 15 14 14 14 13 13 13 13 13 14 14 14 14 13 14 16 18 19 20 19 20 22 23 22 22 23 22 19 16 17 20 19 17 17 18 19
15 15 16 18 19 19 19 18 18 17 17 17 17 17 17 17 18 18 17 17 17 17 18 18 18 17 17 15 14 13 13 13 14 14 14 13 13 13 14 15 15 16 17 20 22 22 21 20 22 24 23 24 26 27 27 26 27 28 28 28 29 29 28
15 16 17 17 17 18 19 20 19 19 18 17 17 17 17 18 18 18 18 18 18 18 19 19 19 19 19 17 16 14 14 14 14 14 14 14 13 13 13 15 16 15 15 16 18 20 20 20 22 23 23 23 24 27 29 29 29 29 29 29 29 28 27
Wind_Direction
166 164 171 185 198 203 197 192 191 195 199 199 200 203 199 192 190 186 181 180 182 183 183 183 184 185 187 188 188 188 188 189 191 195 198 200 201 199 198 198 199 200 199 201 199 195 193 189 188 189 187 190 190 186 185 189 195 193 199 218 222 209 212
102 122 160 180 186 194 196 191 190 192 197 202 204 205 200 193 193 191 182 180 183 184 183 183 184 185 187 188 189 188 189 189 191 194 197 199 200 201 201 200 201 202 203 205 201 196 196 193 192 192 189 192 195 193 193 195 198 199 202 212 215 215 223
61 86 141 188 192 188 191 192 191 192 198 204 204 202 199 196 194 189 180 179 183 185 184 184 185 186 188 188 189 189 190 190 191 193 197 198 198 200 201 200 202 204 203 205 204 198 195 193 193 195 195 198 199 198 200 203 203 204 206 209 213 216 214
44 56 103 173 199 195 194 194 190 190 200 209 207 203 202 196 190 185 180 180 185 187 186 186 187 188 189 188 189 190 190 192 193 195 198 200 199 200 201 201 202 205 205 204 206 205 199 194 194 196 197 201 203 203 205 209 209 209 214 216 216 218 214
43 48 62 75 171 189 194 198 198 196 200 212 214 209 207 201 190 184 184 184 188 190 188 189 191 191 190 189 191 192 192 193 194 196 199 200 200 201 203 204 204 205 207 205 204 206 203 199 198 198 198 200 203 206 207 210 213 212 215 221 224 224 218
31 38 38 26 26 117 177 183 188 197 212 226 226 218 211 205 195 190 191 187 190 195 194 194 196 192 190 192 192 191 192 193 194 196 198 199 200 202 203 205 206 205 207 207 205 205 205 204 203 199 199 202 204 208 209 209 213 214 213 217 225 231 225
28 28 31 24 20 27 70 147 159 176 195 209 219 227 224 208 196 194 196 193 196 202 200 198 198 194 191 192 192 190 190 192 194 194 197 199 201 202 203 204 206 207 207 208 207 206 205 206 205 202 201 203 205 209 211 210 213 215 215 216 220 229 232
36 29 29 29 28 30 34 53 92 154 178 171 191 216 222 206 195 196 199 202 205 208 205 203 202 196 191 190 190 190 190 191 193 193 196 199 201 203 205 204 205 206 206 207 207 207 207 206 206 206 205 204 206 209 210 210 212 216 217 218 219 223 228
40 34 31 33 31 32 34 39 52 75 143 162 177 198 204 192 190 192 203 219 222 221 216 212 205 194 190 189 189 189 189 191 192 193 196 200 202 204 205 206 205 203 204 208 207 206 209 209 207 206 207 207 207 208 210 209 210 214 217 218 219 222 226
40 33 32 36 35 33 35 37 41 43 43 88 148 155 172 191 186 186 202 223 235 241 238 226 210 193 188 189 189 188 188 190 192 194 197 200 202 204 206 206 205 203 204 207 208 207 207 209 209 207 206 208 209 208 210 211 211 213 216 218 218 221 224
43 37 33 34 35 36 37 36 36 33 31 42 67 98 181 218 210 203 210 216 228 248 254 242 212 192 194 193 190 189 190 192 194 195 198 200 202 205 206 206 205 204 206 208 209 209 206 206 209 209 207 208 210 210 210 211 213 214 217 219 218 218 222
47 41 36 34 34 37 37 36 36 33 30 34 39 46 61 206 220 226 226 224 232 252 267 264 210 189 203 203 195 194 193 195 198 198 199 202 204 205 205 206 206 204 204 208 210 211 209 206 206 208 210 210 210 212 212 213 215 217 219 221 221 220 221
58 51 42 36 33 35 35 33 33 33 33 31 28 28 30 36 85 234 232 235 243 245 258 271 240 206 211 207 201 201 198 198 202 202 203 203 205 207 206 206 207 206 203 204 207 209 212 210 206 206 209 211 212 213 214 214 216 218 219 222 223 223 222
62 58 51 43 36 32 30 29 29 29 30 30 27 24 21 22 19 2 347 144 187 232 242 256 258 253 249 222 211 210 206 204 204 204 205 205 205 208 209 208 208 208 205 204 206 208 211 213 210 207 207 211 213 214 214 215 216 218 219 220 223 224 223
59 56 53 48 43 37 30 27 25 23 24 26 26 25 19 14 11 5 14 62 92 222 244 245 247 254 252 232 223 221 215 210 208 206 205 205 206 206 210 211 210 210 209 207 208 209 211 214 214 211 210 211 212 214 216 217 217 218 217 218 220 223 224
58 56 52 47 44 41 36 31 24 20 20 21 21 22 20 13 9 6 10 26 34 355 310 277 265 265 251 229 223 225 224 217 212 209 205 203 205 204 207 211 211 211 211 210 211 211 211 214 216 215 213 212 212 215 217 219 221 219 217 216 217 220 224
56 53 50 47 43 39 38 35 27 21 18 18 16 16 17 13 8 7 9 13 11 358 347 333 308 292 271 250 236 227 226 221 215 214 209 204 203 204 204 208 211 211 210 210 212 212 212 214 216 218 218 215 215 216 219 223 225 221 218 217 218 218 222
59 53 47 45 41 34 32 33 31 25 18 15 13 12 13 10 8 8 8 9 9 0 349 341 326 305 290 281 267 249 239 227 218 220 219 209 203 202 203 205 209 211 211 212 211 211 212 214 216 219 222 222 221 220 221 224 226 224 221 220 222 223 224
59 57 50 43 39 34 28 26 27 26 20 15 12 10 9 8 7 7 7 6 7 6 357 348 334 313 303 305 298 280 266 251 232 223 223 219 210 204 204 206 208 209 209 211 211 210 211 213 215 217 221 225 228 227 226 226 225 225 223 222 225 227 228
54 55 54 47 41 35 27 23 21 20 18 17 14 9 8 10 8 4 6 8 9 8 2 358 354 342 328 320 310 289 278 274 261 239 228 226 218 209 208 209 210 210 210 210 209 209 211 213 214 216 218 223 227 229 231 230 228 226 224 223 225 228 231
55 50 48 46 43 36 27 21 17 14 11 12 12 7 5 9 8 3 6 12 13 10 3 1 3 358 348 338 319 287 280 290 284 265 250 240 233 232 231 224 216 213 213 213 210 209 210 212 213 214 216 219 222 225 228 230 230 229 228 226 225 227 231
48 46 43 37 36 37 29 18 13 11 6 7 10 6 4 6 5 3 6 11 13 11 7 6 4 0 358 353 333 303 298 307 297 279 271 258 245 251 257 252 240 226 219 219 217 213 212 213 215 216 217 218 219 223 227 229 229 229 229 229 228 227 229
35 37 40 30 27 33 27 15 10 4 360 5 10 5 1 4 4 2 3 6 9 10 10 10 5 359 358 354 341 326 319 316 309 293 277 258 248 252 256 260 260 251 237 229 224 220 216 216 217 218 219 219 219 221 226 229 230 229 229 229 229 228 229
30 25 28 19 18 24 18 8 4 356 353 1 7 1 357 1 2 1 1 1 3 6 9 9 5 0 356 351 344 337 327 318 314 311 292 258 245 243 239 239 245 249 247 244 238 229 225 223 221 220 220 220 220 221 225 228 229 229 229 229 230 230 230
20 18 13 5 11 15 4 354 350 346 348 357 360 353 351 357 360 360 360 358 358 2 5 5 4 359 351 346 343 339 333 323 309 301 297 283 265 254 244 238 238 240 244 249 250 242 233 231 228 226 225 224 222 222 224 228 230 230 229 229 230 231 231
9 11 1 356 8 5 348 340 342 340 342 352 352 343 344 353 357 357 355 352 354 358 358 357 358 354 348 345 340 335 336 331 313 298 295 289 278 272 266 257 251 248 246 255 261 258 248 239 234 233 232 230 229 227 225 228 231 232 233 232 230 231 231
360 1 356 356 0 353 337 337 341 335 333 338 338 336 341 345 348 350 349 346 347 351 352 351 350 349 347 344 337 331 333 333 326 321 318 306 288 282 280 274 266 257 248 251 258 259 257 252 243 237 236 236 236 235 233 233 234 234 236 236 234 233 231
356 351 350 350 347 342 339 338 334 328 327 329 330 333 336 335 337 340 338 337 340 341 342 343 343 342 344 340 332 330 330 330 331 332 331 326 316 306 297 286 276 266 253 242 240 241 245 249 246 240 239 240 241 240 239 241 242 240 238 237 236 236 233
356 347 343 339 336 340 340 333 327 325 324 325 326 328 329 327 327 328 326 327 331 331 332 335 335 335 337 333 329 327 326 326 328 329 326 324 322 318 308 292 280 273 264 252 244 240 238 239 240 239 239 243 245 243 242 243 245 244 243 241 240 238 236
349 342 337 333 332 336 335 328 324 322 319 320 322 322 322 321 318 316 314 317 322 323 324 326 326 328 330 328 326 323 319 320 326 327 321 314 311 311 305 296 285 275 266 260 257 256 249 241 237 239 241 245 247 246 244 244 244 244 243 241 242 242 241
335 333 330 328 328 330 328 322 318 316 314 316 318 317 315 313 309 306 307 311 314 316 315 315 318 322 324 323 321 319 316 315 317 315 308 303 304 307 302 297 292 286 280 274 267 264 260 252 244 240 241 243 246 248 247 246 247 247 245 242 242 244 245
325 326 325 324 325 326 322 316 312 312 312 313 314 313 310 307 304 303 304 306 307 306 306 308 311 314 315 315 314 314 312 309 305 301 298 301 308 309 301 293 288 286 285 283 277 273 271 267 260 253 250 248 247 248 249 250 251 250 247 243 244 246 246
318 321 320 320 322 321 315 309 308 309 309 309 311 311 308 305 302 300 300 300 301 301 303 305 305 304 305 306 308 309 308 305 303 304 305 308 309 305 301 297 291 284 282 280 278 277 276 271 265 259 257 256 255 254 254 252 252 253 250 246 249 250 245
312 314 314 315 315 314 311 306 303 303 303 304 306 306 304 303 301 299 299 299 297 298 300 298 295 295 297 299 300 300 301 300 300 300 301 302 300 296 293 293 290 288 290 289 285 283 279 275 273 268 263 263 265 266 264 260 264 274 275 263 260 260 254
306 307 309 310 310 309 308 303 299 297 296 298 300 301 300 299 299 298 298 297 294 292 290 288 287 287 288 290 290 290 289 289 290 293 295 295 294 291 287 285 286 290 295 294 290 288 286 285 286 285 284 287 289 288 286 288 290 291 284 268 262 264 263
300 303 305 306 305 304 303 301 299 296 293 293 295 296 295 296 296 297 297 295 293 288 284 282 281 281 281 282 281 282 284 286 287 291 293 292 292 293 292 290 286 284 286 285 279 278 281 284 284 283 284 287 288 287 288 290 289 285 281 276 276 280 281
296 299 301 301 301 301 301 300 300 297 295 293 292 291 291 293 294 294 295 294 292 288 283 279 276 275 276 278 277 278 283 285 285 287 288 288 291 292 292 290 287 283 283 282 279 277 278 278 279 280 280 281 281 280 278 277 277 278 280 280 280 282 284
295 296 296 296 296 297 297 299 298 296 295 294 292 290 290 290 290 292 293 293 292 290 285 280 275 272 271 271 272 275 278 279 280 282 282 282 285 286 287 289 290 289 288 286 287 289 287 282 278 278 277 275 275 276 276 276 276 277 278 280 282 282 282